Météo par heure à Al Khafji

Ce jour, 27 Octobre, Mardi

Heure Température Précipitation Vent Pression Humidité
00:00 +22°C° 0 mm 3 m/s 760 mmHg 43%
01:00 +24°C° 0 mm 3 m/s 760 mmHg 39%
02:00 +24°C° 0 mm 3 m/s 760 mmHg 35%
03:00 +24°C° 0 mm 3 m/s 759 mmHg 30%
04:00 +22°C° 0 mm 3 m/s 760 mmHg 30%
05:00 +22°C° 0 mm 3 m/s 760 mmHg 30%
06:00 +22°C° 0 mm 3 m/s 760 mmHg 30%
07:00 +25°C° 0 mm 3 m/s 761 mmHg 26%
08:00 +28°C° 0 mm 3 m/s 761 mmHg 21%
09:00 +32°C° 0 mm 4 m/s 761 mmHg 17%
10:00 +33°C° 0 mm 4 m/s 761 mmHg 14%
11:00 +35°C° 0 mm 4 m/s 760 mmHg 12%
12:00 +37°C° 0 mm 4 m/s 760 mmHg 9%
13:00 +36°C° 0 mm 4 m/s 760 mmHg 9%
14:00 +36°C° 0 mm 4 m/s 759 mmHg 10%
15:00 +36°C° 0 mm 4 m/s 759 mmHg 10%
16:00 +33°C° 0 mm 3 m/s 759 mmHg 16%
17:00 +29°C° 0 mm 2 m/s 759 mmHg 22%
18:00 +26°C° 0 mm 1 m/s 759 mmHg 27%
19:00 +26°C° 0 mm 1 m/s 759 mmHg 26%
20:00 +25°C° 0 mm 2 m/s 759 mmHg 24%
21:00 +25°C° 0 mm 2 m/s 759 mmHg 23%
22:00 +25°C° 0 mm 3 m/s 759 mmHg 21%
23:00 +26°C° 0 mm 4 m/s 759 mmHg 20%

Demain, 28 Octobre, Mercredi

Heure Température Précipitation Vent Pression Humidité
00:00 +26°C° 0 mm 4 m/s 759 mmHg 18%
01:00 +26°C° 0 mm 4 m/s 759 mmHg 18%
02:00 +25°C° 0 mm 5 m/s 759 mmHg 18%
03:00 +25°C° 0 mm 5 m/s 759 mmHg 18%
04:00 +25°C° 0 mm 5 m/s 759 mmHg 18%
05:00 +23°C° 0 mm 5 m/s 760 mmHg 19%
06:00 +23°C° 0 mm 5 m/s 760 mmHg 20%
07:00 +26°C° 0 mm 5 m/s 760 mmHg 17%
08:00 +29°C° 0 mm 5 m/s 761 mmHg 15%
09:00 +33°C° 0 mm 5 m/s 761 mmHg 12%
10:00 +34°C° 0 mm 4 m/s 761 mmHg 11%
11:00 +35°C° 0 mm 4 m/s 760 mmHg 9%
12:00 +37°C° 0 mm 4 m/s 760 mmHg 8%
13:00 +37°C° 0 mm 4 m/s 759 mmHg 9%
14:00 +36°C° 0 mm 4 m/s 759 mmHg 11%
15:00 +36°C° 0 mm 4 m/s 759 mmHg 12%
16:00 +33°C° 0 mm 4 m/s 759 mmHg 20%
17:00 +28°C° 0 mm 3 m/s 759 mmHg 27%
18:00 +25°C° 0 mm 2 m/s 759 mmHg 35%
19:00 +24°C° 0 mm 2 m/s 759 mmHg 35%
20:00 +24°C° 0 mm 1 m/s 760 mmHg 34%
21:00 +23°C° 0 mm 1 m/s 760 mmHg 34%
22:00 +23°C° 0 mm 2 m/s 760 mmHg 30%
23:00 +24°C° 0 mm 2 m/s 760 mmHg 27%

Après-demain, 29 Octobre, Jeudi

Heure Température Précipitation Vent Pression Humidité
00:00 +24°C° 0 mm 3 m/s 760 mmHg 24%
01:00 +24°C° 0 mm 3 m/s 760 mmHg 23%
02:00 +24°C° 0 mm 3 m/s 760 mmHg 22%
03:00 +22°C° 0 mm 3 m/s 759 mmHg 20%
04:00 +22°C° 0 mm 3 m/s 760 mmHg 20%
05:00 +22°C° 0 mm 3 m/s 760 mmHg 19%
06:00 +21°C° 0 mm 3 m/s 760 mmHg 19%
07:00 +25°C° 0 mm 3 m/s 761 mmHg 16%
08:00 +28°C° 0 mm 3 m/s 761 mmHg 13%
09:00 +31°C° 0 mm 3 m/s 761 mmHg 10%
10:00 +34°C° 0 mm 3 m/s 761 mmHg 9%
11:00 +35°C° 0 mm 3 m/s 761 mmHg 8%
12:00 +36°C° 0 mm 3 m/s 760 mmHg 8%
13:00 +36°C° 0 mm 3 m/s 760 mmHg 10%
14:00 +36°C° 0 mm 3 m/s 760 mmHg 11%
15:00 +36°C° 0 mm 4 m/s 759 mmHg 13%
16:00 +31°C° 0 mm 3 m/s 759 mmHg 22%
17:00 +28°C° 0 mm 2 m/s 760 mmHg 31%
18:00 +24°C° 0 mm 2 m/s 760 mmHg 41%
19:00 +24°C° 0 mm 1 m/s 760 mmHg 41%
20:00 +23°C° 0 mm 1 m/s 760 mmHg 41%
21:00 +23°C° 0 mm 1 m/s 760 mmHg 41%
22:00 +23°C° 0 mm 2 m/s 760 mmHg 39%
23:00 +23°C° 0 mm 2 m/s 760 mmHg 36%

30 Octobre, Vendredi

Heure Température Précipitation Vent Pression Humidité
00:00 +22°C° 0 mm 3 m/s 760 mmHg 33%
01:00 +22°C° 0 mm 3 m/s 760 mmHg 32%
02:00 +22°C° 0 mm 3 m/s 760 mmHg 31%
03:00 +21°C° 0 mm 3 m/s 760 mmHg 30%
04:00 +21°C° 0 mm 3 m/s 760 mmHg 29%
05:00 +21°C° 0 mm 3 m/s 760 mmHg 29%
06:00 +21°C° 0 mm 3 m/s 761 mmHg 28%
07:00 +24°C° 0 mm 3 m/s 761 mmHg 24%
08:00 +27°C° 0 mm 2 m/s 761 mmHg 19%
09:00 +30°C° 0 mm 2 m/s 761 mmHg 15%
10:00 +32°C° 0 mm 2 m/s 761 mmHg 13%
11:00 +33°C° 0 mm 1 m/s 761 mmHg 11%
12:00 +35°C° 0 mm 1 m/s 760 mmHg 9%
13:00 +36°C° 0 mm 2 m/s 760 mmHg 10%
14:00 +36°C° 0 mm 3 m/s 759 mmHg 11%
15:00 +36°C° 0 mm 3 m/s 759 mmHg 12%
16:00 +31°C° 0 mm 3 m/s 759 mmHg 21%
17:00 +28°C° 0 mm 2 m/s 759 mmHg 31%
18:00 +24°C° 0 mm 2 m/s 759 mmHg 40%
19:00 +24°C° 0 mm 2 m/s 760 mmHg 39%
20:00 +24°C° 0 mm 2 m/s 760 mmHg 38%
21:00 +24°C° 0 mm 2 m/s 760 mmHg 37%
22:00 +24°C° 0 mm 2 m/s 760 mmHg 34%
23:00 +24°C° 0 mm 3 m/s 760 mmHg 30%

31 Octobre, Samedi

Heure Température Précipitation Vent Pression Humidité
00:00 +24°C° 0 mm 3 m/s 760 mmHg 27%
01:00 +24°C° 0 mm 3 m/s 760 mmHg 25%
02:00 +22°C° 0 mm 3 m/s 760 mmHg 22%
03:00 +22°C° 0 mm 3 m/s 760 mmHg 19%
04:00 +22°C° 0 mm 3 m/s 760 mmHg 19%
05:00 +22°C° 0 mm 3 m/s 760 mmHg 18%
06:00 +21°C° 0 mm 3 m/s 760 mmHg 18%
07:00 +25°C° 0 mm 3 m/s 761 mmHg 16%
08:00 +28°C° 0 mm 2 m/s 761 mmHg 14%
09:00 +30°C° 0 mm 2 m/s 761 mmHg 12%
10:00 +32°C° 0 mm 2 m/s 761 mmHg 11%
11:00 +33°C° 0 mm 1 m/s 761 mmHg 10%
12:00 +35°C° 0 mm 1 m/s 760 mmHg 10%
13:00 +36°C° 0 mm 2 m/s 760 mmHg 10%
14:00 +36°C° 0 mm 2 m/s 760 mmHg 10%
15:00 +36°C° 0 mm 3 m/s 759 mmHg 11%
16:00 +33°C° 0 mm 3 m/s 759 mmHg 19%
17:00 +29°C° 0 mm 3 m/s 760 mmHg 27%
18:00 +26°C° 0 mm 3 m/s 760 mmHg 35%
19:00 +25°C° 0 mm 3 m/s 760 mmHg 37%
20:00 +24°C° 0 mm 2 m/s 760 mmHg 38%
21:00 +24°C° 0 mm 2 m/s 760 mmHg 40%
22:00 +24°C° 0 mm 2 m/s 760 mmHg 38%
23:00 +24°C° 0 mm 2 m/s 760 mmHg 36%

1 Novembre, Dimanche

Heure Température Précipitation Vent Pression Humidité
00:00 +24°C° 0 mm 2 m/s 760 mmHg 34%
01:00 +24°C° 0 mm 3 m/s 760 mmHg 34%
02:00 +24°C° 0 mm 3 m/s 760 mmHg 33%
03:00 +23°C° 0 mm 4 m/s 760 mmHg 33%
04:00 +22°C° 0 mm 4 m/s 760 mmHg 33%
05:00 +22°C° 0 mm 4 m/s 761 mmHg 32%
06:00 +22°C° 0 mm 4 m/s 761 mmHg 32%
07:00 +26°C° 0 mm 3 m/s 761 mmHg 27%
08:00 +28°C° 0 mm 2 m/s 762 mmHg 22%
09:00 +31°C° 0 mm 1 m/s 762 mmHg 18%
10:00 +32°C° 0 mm 1 m/s 762 mmHg 16%
11:00 +34°C° 0 mm 1 m/s 762 mmHg 14%
12:00 +35°C° 0 mm 1 m/s 761 mmHg 12%
13:00 +36°C° 0 mm 2 m/s 761 mmHg 13%
14:00 +36°C° 0 mm 3 m/s 761 mmHg 14%
15:00 +36°C° 0 mm 4 m/s 760 mmHg 15%
16:00 +33°C° 0 mm 4 m/s 760 mmHg 24%
17:00 +29°C° 0 mm 4 m/s 760 mmHg 34%
18:00 +26°C° 0 mm 4 m/s 760 mmHg 43%
19:00 +26°C° 0 mm 4 m/s 761 mmHg 45%
20:00 +25°C° 0 mm 4 m/s 761 mmHg 46%
21:00 +25°C° 0 mm 3 m/s 761 mmHg 48%
22:00 +25°C° 0 mm 3 m/s 761 mmHg 46%
23:00 +23°C° 0 mm 4 m/s 761 mmHg 44%
Voir plus

Nous avons besoin de votre consentement

Meteoprog et ses fournisseurs de services peuvent stocker et accéder à des données personnelles telles que des cookies, des identifiants d'appareils ou d'autres technologies similaires sur votre appareil et traiter ces données pour personnaliser le contenu et les publicités, ainsi que pour fournir des fonctionnalités de médias sociaux et analyser le trafic.

  • Stocker et/ou accéder à des informations sur votre appareil

    Des cookies, des identifiants d'appareils ou d'autres informations peuvent être stockés ou accessibles sur votre appareil aux fins indiquées ci-dessus.

  • Annonces et contenus personnalisés, mesure des annonces et des contenus, connaissance de l'audience et développement de produits

    Les annonces et le contenu peuvent être personnalisés en fonction d'un profil. D'autres données peuvent être ajoutées pour mieux personnaliser les annonces et le contenu. Les performances des publicités et du contenu peuvent être mesurées. Il est possible d'obtenir des informations sur le public qui a vu les publicités et le contenu. Ces données peuvent être utilisées pour développer ou améliorer l'expérience de l'utilisateur, les systèmes et les logiciels.

En cliquant sur "J'accepte", vous autorisez l'utilisation de cookies, des identifiants d'appareils, des balises web ou d'autres technologies similaires. Vos paramètres peuvent être modifiés dans le navigateur de votre appareil.

Dans certains cas, des intérêts légitimes peuvent être invoqués plutôt qu'un consentement. Vous pouvez en savoir plus à ce sujet dans notre Politique de confidentialité et de cookies.